Location: The Saddle
(36.8333°N, 80.3417°W)
Time: 04:38:06
(UTC-04:00)

Vanguard 3 - Pass Details

Date: 23 February 2024
Orbit: 510 x 3234 km, 33.3° (Epoch: 24 April)

Event Time Altitude Azimuth Distance (km) Brightness Sun altitude
Rises 18:28:39 0° 202° (SSW) 6,332 12.2 -4.6°
Reaches altitude 10° 18:33:22 10° 192° (SSW) 5,634 11.7 -5.5°
Maximum altitude 18:48:00 31° 139° (SE) 4,625 10.7 -8.5°
Enters shadow 19:02:01 12° 89° (E) 5,759 10.8 -11.2°
